Regional Weather Roundup
Issued by NWS

Home | Current Version | Previous Version | Graphics & Text | Print | Product List | Glossary On
Versions: 1 2 3 4 5 6 7 8 9 10 11 12 13 14 15 16 17 18 19 20 21 22 23 24 25 26 27 28 29 30 31 32 33 34 35 36 37 38 39 40 41 42 43 44 45 46 47 48 49 50
000
ASUS43 KMKX 120020
RWRWI

WISCONSIN REGIONAL WEATHER ROUNDUP
NATIONAL WEATHER SERVICE MILWAUKEE/SULLIVAN WI
600 PM CST MON DEC 11 2017

NOTE: "FAIR" INDICATES FEW OR NO CLOUDS BELOW 12,000 FEET WITH NO
SIGNIFICANT WEATHER AND/OR OBSTRUCTIONS TO VISIBILITY.

WIZ001-002-006>008-014>016-023>028-120100-
NORTHWEST WISCONSIN

CITY           SKY/WX    TMP DP  RH WIND       PRES   REMARKS
SUPERIOR ARPT  PTCLDY    19   9  65 N14       30.09R WCI   6
6HR MIN TEMP:  19; 6HR MAX TEMP:  29;

ASHLAND        CLOUDY    19   9  65 NW15G23   30.03R WCI   5
6HR MIN TEMP:  19; 6HR MAX TEMP:  28; 6HR PCP: TRACE;

HAYWARD        CLOUDY    21  10  62 N12G21    30.00R WCI   9
6HR MIN TEMP:  21; 6HR MAX TEMP:  28; 6HR PCP: TRACE;

SIREN          PTCLDY    21  11  64 NW14      30.07R WCI   8
6HR MIN TEMP:  21; 6HR MAX TEMP:  31;

CUMBERLAND     CLOUDY    21  12  68 N20G29    30.00R WCI   6
RICE LAKE      PTCLDY    22  11  63 NW14G24   30.02R WCI   9
6HR MIN TEMP:  22; 6HR MAX TEMP:  31;

CHETEK         CLOUDY    22  13  67 NW10G21   29.99R WCI  12
6HR MIN TEMP:  22; 6HR MAX TEMP:  30;

LADYSMITH      MOCLDY    22  12  63 N24G31    29.97R WCI   6
6HR MIN TEMP:  22; 6HR MAX TEMP:  29;

EAU CLAIRE     CLOUDY    25  14  63 N20G30    29.99R WCI  11
6HR MIN TEMP:  26; 6HR MAX TEMP:  31; 6HR PCP: TRACE;

MENOMONIE      CLOUDY    27  15  61 NW18G25   30.00R WCI  14
6HR MIN TEMP:  27; 6HR MAX TEMP:  32;

NEW RICHMOND   MOCLDY    24  14  66 N23       30.05R WCI   8
6HR MIN TEMP:  24; 6HR MAX TEMP:  32;

OSCEOLA        CLOUDY    25  15  65 NW15G21   30.10R WCI  13
6HR MIN TEMP:  25; 6HR MAX TEMP:  33; 6HR PCP:  0.01;

$$

WIZ003>005-009-010-017-018-120100-
NORTH CENTRAL WISCONSIN

CITY           SKY/WX    TMP DP  RH WIND       PRES   REMARKS
MANITOWISH WTR LGT SNOW  18  15  86 NW15G22   29.87R WCI   4
6HR MIN TEMP:  18; 6HR MAX TEMP:  24;

ARBOR VITAE    LGT SNOW  22  17  81 N17G24    29.84R WCI   7
6HR MIN TEMP:  22; 6HR MAX TEMP:  26;

WOODRUFF       LGT SNOW  22  17  81 N17G24    29.84R WCI   7
6HR MIN TEMP:  22; 6HR MAX TEMP:  26;

RHINELANDER    FLURRIES  20  14  77 NW17G26   29.83R WCI   5
6HR MIN TEMP:  20; 6HR MAX TEMP:  25; 6HR PCP: TRACE;

EAGLE RIVER    LGT SNOW  20  14  77 N14G28    29.82R WCI   6
6HR MIN TEMP:  20; 6HR MAX TEMP:  25;

LAND O LAKES   LGT SNOW  19  14  79 N17G26    29.83R WCI   4
6HR MIN TEMP:  19; 6HR MAX TEMP:  25;

PHILLIPS       FLURRIES  19  15  82 N13G20    29.90R WCI   7
6HR MIN TEMP:  19; 6HR MAX TEMP:  25;

TOMAHAWK       LGT SNOW  21  16  81 NW14G22   29.87R WCI   8
6HR MIN TEMP:  21; 6HR MAX TEMP:  25;

MEDFORD        FLURRIES  23  16  73 NW17G26   29.86R WCI  10
6HR MIN TEMP:  23; 6HR MAX TEMP:  26;

MERRILL        CLOUDY    24  16  72 N21G35    29.85R WCI   9
6HR MIN TEMP:  24; 6HR MAX TEMP:  27;

$$

WIZ029-030-035-036-043>047-120100-
CENTRAL WISCONSIN

CITY           SKY/WX    TMP DP  RH WIND       PRES   REMARKS
WAUSAU         CLOUDY    26  17  68 NW16G28   29.82R WCI  14
6HR MIN TEMP:  23; 6HR MAX TEMP:  27; 6HR PCP: TRACE;

MOSINEE        CLOUDY    27  23  86 NW15G22   29.84R WCI  15
MARSHFIELD     CLOUDY    28  21  75 N18       29.84R WCI  15
6HR MIN TEMP:  26; 6HR MAX TEMP:  29; 6HR PCP: TRACE;

STEVENS POINT  CLOUDY    27  22  84 NW9G17    29.83R WCI  17
6HR MIN TEMP:  25; 6HR MAX TEMP:  27;

WAUPACA        CLOUDY    31  24  74 NW13G22   29.82R WCI  21
6HR MIN TEMP:  29; 6HR MAX TEMP:  31;

WAUTOMA        CLOUDY    29  23  78 NW15G21   29.83R WCI  18
6HR MIN TEMP:  29; 6HR MAX TEMP:  35;

WISC RAPIDS    CLOUDY    29  23  78 N14       29.86R WCI  18
6HR MIN TEMP:  28; 6HR MAX TEMP:  30;

CAMP DOUGLAS   CLOUDY    30  23  74 NW13G21   29.88R WCI  20
$$

WIZ011>013-019>022-031-037>040-048>050-120100-
NORTHEAST WISCONSIN

CITY           SKY/WX    TMP DP  RH WIND       PRES   REMARKS
ANTIGO         FLURRIES  24  19  80 NW21G35   29.79R WCI   9
6HR MIN TEMP:  20; 6HR MAX TEMP:  25;

SHAWANO        CLOUDY    29  25  83 NW6       29.80R WCI  23
6HR MIN TEMP:  27; 6HR MAX TEMP:  29;

OCONTO         CLOUDY    26  23  87 NW6       29.78R WCI  19
6HR MIN TEMP:  25; 6HR MAX TEMP:  26;

STURGEON BAY   CLOUDY    26  23  88 NW13      29.77R WCI  15
6HR MIN TEMP:  26; 6HR MAX TEMP:  26; 6HR PCP: TRACE;

GREEN BAY      CLOUDY    27  24  89 NW9       29.79R WCI  18
6HR MIN TEMP:  26; 6HR MAX TEMP:  29; 6HR PCP:  0.01;

MANITOWOC      CLOUDY    28  23  81 NW13      29.78R WCI  17
6HR MIN TEMP:  27; 6HR MAX TEMP:  30; 6HR PCP: TRACE;

APPLETON       CLOUDY    27  21  80 NW12G18   29.77R WCI  16
CLINTONVILLE   CLOUDY    28  23  80 NW12G21   29.80  WCI  18
OSHKOSH        CLOUDY    29  23  78 NW14G21   29.79R WCI  18
6HR MIN TEMP:  29; 6HR MAX TEMP:  32;

$$

WIZ032>034-041-042-053>061-120100-
SOUTHWEST WISCONSIN

CITY           SKY/WX    TMP DP  RH WIND       PRES   REMARKS
LA CROSSE      CLOUDY    33  24  69 N16G26    29.93R WCI  23
6HR MIN TEMP:  29; 6HR MAX TEMP:  34; 6HR PCP: TRACE;

SPARTA         CLOUDY    31  26  80 NW15G23   29.91R WCI  20
6HR MIN TEMP:  29; 6HR MAX TEMP:  32;

VIROQUA        CLOUDY    30  28  90 N18G25    29.86R WCI  18
6HR MIN TEMP:  27; 6HR MAX TEMP:  31; 6HR PCP:  0.06;

BOSCOBEL       CLOUDY    34  27  75 N12G21    29.90R WCI  25
6HR MIN TEMP:  31; 6HR MAX TEMP:  34; 6HR PCP:  0.06;

PRAIRIE DU CHI CLOUDY    34  28  77 NW15      29.90R WCI  24
6HR MIN TEMP:  31; 6HR MAX TEMP:  34; 6HR PCP:  0.01;

PLATTEVILLE    CLOUDY    32  31  96 NW17G23   29.84R WCI  21
6HR MIN TEMP:  32; 6HR MAX TEMP:  33;

$$

WIZ056-057-062-063-064-067-068-120100-
SOUTH CENTRAL WISCONSIN

CITY           SKY/WX    TMP DP  RH WIND       PRES   REMARKS
REEDSBURG      CLOUDY    31  26  82 NW17G24   29.84R WCI  19
6HR MIN TEMP:  29; 6HR MAX TEMP:  32;

BARABOO/DELLS  CLOUDY    30  25  79 NW12G22   29.83R WCI  21
6HR MIN TEMP:  30; 6HR MAX TEMP:  32;

LONE ROCK      CLOUDY    33  28  81 NW13G23   29.86R WCI  24
6HR MIN TEMP:  30; 6HR MAX TEMP:  33; 6HR PCP:  0.04;

MINERAL POINT  CLOUDY    32  32 100 NW20G25   29.82R WCI  20
MADISON        CLOUDY    31  26  82 NW8       29.80R WCI  23
6HR MIN TEMP:  30; 6HR MAX TEMP:  32; 6HR PCP: TRACE;

MIDDLETON      CLOUDY    32  29  86 NW9       29.81R WCI  25
6HR MIN TEMP:  32; 6HR MAX TEMP:  33;

WATERTOWN      CLOUDY    31  28  88 NW8       29.78R WCI  23
6HR MIN TEMP:  30; 6HR MAX TEMP:  32;

MONROE         CLOUDY    32  28  86 NW8G16    29.79R WCI  25
JANESVILLE     CLOUDY    34  28  80 NW9G17    29.78R WCI  26
$$

WIZ051-052-058>065-066-070>072-120100-
SOUTHEAST WISCONSIN

CITY           SKY/WX    TMP DP  RH WIND       PRES   REMARKS
MILWAUKEE      CLOUDY    34  26  72 NW10G20   29.76R WCI  26
6HR MIN TEMP:  32; 6HR MAX TEMP:  35; 6HR PCP: TRACE;

WAUKESHA       CLOUDY    28  25  86 NW12      29.77R WCI  18
MILWAUKEE/TIMM CLOUDY    32  23  69 NW13      29.76R WCI  22
RACINE         CLOUDY    32  27  81 NW6       29.77R WCI  26
6HR MIN TEMP:  32; 6HR MAX TEMP:  34; 6HR PCP: TRACE;

BURLINGTON     CLOUDY    41  41 100 NW10      29.76R
6HR MIN TEMP:  39; 6HR MAX TEMP:  42;

KENOSHA        CLOUDY    32  27  81 NW7       29.76R WCI  26
6HR MIN TEMP:  31; 6HR MAX TEMP:  35; 6HR PCP:  0.01;

FOND DU LAC    CLOUDY    30  23  75 N13G22    29.79R WCI  20
6HR MIN TEMP:  30; 6HR MAX TEMP:  33; 6HR PCP: TRACE;

SHEBOYGAN      CLOUDY    29  24  82 NW13G22   29.76R WCI  19
6HR MIN TEMP:  28; 6HR MAX TEMP:  31;

WEST BEND      CLOUDY    30  27  86 NW13      29.76R WCI  20
JUNEAU         CLOUDY    30  25  81 NW7       29.79R WCI  23
6HR MIN TEMP:  29; 6HR MAX TEMP:  31;

$$

LSZ147-162-120100-
LAKE SUPERIOR

STATION/POSITION TIME  TEMP    WIND        PRES    WAVE
                       AIR SEA DIR/SP/G            HT/PER
                 (UTC) (F)     (DEG/KT/KT) (MB)    (FT/S)
DEVILS ISLAND    0000   20     320/ 25/ 32 1018.6R
SAXON HARBOR     2351   24                 1015.2R
$$

LMZ867-665-643>646-120100-
LAKE MICHIGAN

STATION/POSITION TIME  TEMP    WIND        PRES    WAVE
                       AIR SEA DIR/SP/G            HT/PER
                 (UTC) (F)     (DEG/KT/KT) (MB)    (FT/S)
NORTHPORT PIER   0002


USA.gov is the U.S. government's official web portal to all federal, state and local government web resources and services.